SCP
0 0 0 0 0 0 0 0 0 0 0 0 0 0 0 0 0 0 0 0 0 0 0 0 0 0 0 0 0 0 0 0 0 0 0 0 0 0 0 0 0 0 0 0
0 0 0 0 0 0 0 0 0 0 0 0 0 0 0 0 0 0 0 0 0 0 0 0 0 0 0 0 0 0 0 0 0 0 0 0 0 0 0 0 0 0 0 0
0 0 0 0 0 0 0 0 0 0 0 0 0 0 0 0 0 0 0 0 0 0 0 0 0 0 0 0 0 0 0 0 0 0 0 0 0 0 0 0 0 0 0 0
0 0 0 0 0 0 0 0 0 0 0 0 0 0 0 0 0 0 0 0 0 0 0 0 0 0 0 0 0 0 0 0 0 0 0 0 0 0 0 0 0 0 0 0
0 0 0 0 0 0 0 0 0 0 0 0 0 0 0 0 0 0 0 0 0 0 0 0 0 0 0 0 0 0 0 0 0 0 0 0 0 0 0 0 0 0 0 0
0 0 0 0 0 0 0 0 0 0 0 0 0 0 0 0 0 0 0 0 0 0 0 0 0 0 0 0 0 0 0 0 0 0 0 0 0 0 0 0 0 0 0 0
0 0 0 0 0 0 0 0 0 0 0 0 0 0 0 0 0 0 0 0 0 0 0 0 0 0 0 0 0 0 0 0 0 0 0 0 0 0 0 0 0 0 0 0
0 0 0 0 0 0 0 0 0 0 0 0 0 0 0 0 0 0 0 0 0 0 0 0 0 0 0 0 0 0 0 0 0 0 0 0 0 0 0 0 0 0 0 0
0 0 0 0 0 0 0 0 0 0 0 0 0 0 0 0 0 0 0 0 0 0 0 0 0 0 0 0 0 0 0 0 0 0 0 0 0 0 0 0 0 0 0 0
0 0 0 0 0 0 0 0 0 0 0 0 0 0 0 0 0 0 0 0 0 0 0 0 0 0 0 0 0 0 0 0 0 0 0 0 0 0 0 0 0 0 0 0
0 0 0 0 0 0 0 0 0 0 0 0 0 0 0 0 0 0 0 0 0 0 0 0 0 0 0 0 0 0 0 0 0 0 0 0 0 0 0 0 0 0 0 0
0 0 0 0 0 0 0 0 0 0 0 0 0 0 0 0 0 0 0 0 0 0 0 0 0 0 0 0 0 0 0 0 0 0 0 0 0 0 0 0 0 0 0 0
0 0 0 0 0 0 0 0 0 0 0 0 0 0 0 0 0 0 0 0 0 0 0 0 0 0 0 0 0 0 0 0 0 0 0 0 0 0 0 0 0 0 0 0
0 0 0 0 0 0 0 0 0 0 0 0 0 0 0 0 0 0 0 0 0 0 0 0 0 0 0 0 0 0 0 0 0 0 0 0 0 0 0 0 0 0 0 0
0 0 0 0 0 0 0 0 0 0 0 0 0 0 0 0 0 0 0 0 0 0 0 0 0 0 0 0 0 0 0 0 0 0 0 0 0 0 0 0 0 0 0 0
0 0 0 0 0 0 0 0 0 0 0 0 0 0 0 0 0 0 0 0 0 0 0 0 0 0 0 0 0 0 0 0 0 0 0 0 0 0 0 0 0 0 0 0
0 0 0 0 0 0 0 0 0 0 0 0 0 0 0 0 0 0 0 0 0 0 0 0 0 0 0 0 0 0 0 0 0 0 0 0 0 0 0 0 0 0 0 0
0 0 0 0 0 0 0 0 0 0 0 0 0 0 0 0 0 0 0 0 0 0 0 0 0 0 0 0 0 0 0 0 0 0 0 0 0 0 0 0 0 0 0 0
0 0 0 0 0 0 0 0 0 0 0 0 0 0 0 0 0 0 0 0 0 0 0 0 0 0 0 0 0 0 0 0 0 0 0 0 0 0 0 0 0 0 0 0
0 0 0 0 0 0 0 0 0 0 0 0 0 0 0 0 0 0 0 0 0 0 0 0 0 0 0 0 0 0 0 0 0 0 0 0 0 0 0 0 0 0 0 0
0 0 0 0 0 0 0 0 0 0 0 0 0 0 0 0 0 0 0 0 0 0 0 0 0 0 0 0 0 0 0 0 0 0 0 0 0 0 0 0 0 0 0 0
0 0 0 0 0 0 0 0 0 0 0 0 0 0 0 0 0 0 0 0 0 0 0 0 0 0 0 0 0 0 0 0 0 0 0 0 0 0 0 0 0 0 0 0
0 0 0 0 0 0 0 0 0 0 0 0 0 0 0 0 0 0 0 0 0 0 0 0 0 0 0 0 0 0 0 0 0 0 0 0 0 0 0 0 0 0 0 0
0 0 0 0 0 0 0 0 0 0 0 0 0 0 0 0 0 0 0 0 0 0 0 0 0 0 0 0 0 0 0 0 0 0 0 0 0 0 0 0 0 0 0 0
0 0 0 0 0 0 0 0 0 0 0 0 0 0 0 0 0 0 0 0 0 0 0 0 0 0 0 0 0 0 0 0 0 0 0 0 0 0 0 0 0 0 0 0
0 0 0 0 0 0 0 0 0 0 0 0 0 0 0 0 0 0 0 0 0 0 0 0 0 0 0 0 0 0 0 0 0 0 0 0 0 0 0 0 0 0 0 0
0 0 0 0 0 0 0 0 0 0 0 0 0 0 0 0 0 0 0 0 0 0 0 0 0 0 0 0 0 0 0 0 0 0 0 0 0 0 0 0 0 0 0 0
Wind_Speed
4 3 6 9 11 14 13 13 14 12 12 10 10 9 8 7 7 7 8 9 10 11 10 9 8 7 7 6 5 5 5 5 4 2 2 2 2 2 2 3 4 5 6 6
3 2 2 5 8 12 13 10 10 7 10 6 6 5 5 6 7 9 9 10 10 10 10 10 9 8 7 7 6 5 6 5 4 3 3 2 1 2 3 4 4 5 6 7
5 3 2 13 12 14 9 8 10 14 13 4 5 7 8 8 8 10 9 9 10 10 10 10 9 8 8 8 5 6 6 5 4 4 3 2 1 3 4 5 5 6 6 7
5 6 14 9 2 10 11 9 10 7 5 6 7 5 5 6 8 9 8 8 8 8 8 8 7 7 6 5 6 6 6 6 5 4 3 1 1 2 4 4 5 6 7 8
6 8 9 7 4 8 9 9 9 12 10 5 3 2 3 6 8 8 8 8 8 8 8 7 7 7 6 6 6 6 7 7 6 4 3 1 2 2 3 3 5 6 7 7
6 7 11 8 4 4 6 7 7 10 10 6 7 3 6 6 7 7 7 7 7 7 6 6 7 6 7 7 7 8 7 7 6 4 3 2 2 2 2 4 6 7 8 8
8 9 10 5 5 7 7 10 5 8 7 9 10 8 5 5 6 8 8 8 8 7 7 8 7 7 8 8 9 7 6 6 5 3 2 2 2 2 3 5 6 6 9 9
6 8 13 9 10 12 9 4 6 7 8 10 9 7 5 5 7 8 8 8 8 8 9 7 7 8 9 10 6 7 7 6 4 2 1 1 2 3 4 4 6 7 8 9
12 9 1 12 10 8 6 7 7 8 8 9 8 8 8 7 8 8 9 10 8 9 9 7 7 9 11 7 8 8 6 5 3 3 3 3 3 4 4 4 5 6 6 8
5 5 2 6 3 3 6 7 7 7 7 8 9 9 9 8 8 8 9 9 8 7 8 9 8 8 7 8 9 8 6 5 4 3 3 3 3 4 4 4 5 6 6 8
4 3 2 6 10 10 8 7 6 6 6 8 9 9 9 8 9 9 9 8 7 8 11 11 7 7 6 8 8 7 5 4 4 4 4 4 4 5 6 7 8 8 8 8
9 9 8 8 10 11 10 10 10 9 8 8 9 10 9 9 9 8 8 6 6 8 8 6 7 8 7 7 7 7 5 5 4 3 3 3 4 5 10 12 16 17 17 14
7 7 8 7 7 9 11 11 10 10 11 10 8 9 9 8 7 5 5 5 6 6 5 5 6 7 7 6 6 6 6 5 3 3 3 4 4 4 6 8 11 13 12 13
7 6 6 8 10 9 10 11 9 8 8 8 7 6 6 6 4 4 4 3 2 3 4 5 5 5 5 6 6 6 5 5 5 4 4 4 4 4 5 6 7 6 8 14
12 12 12 9 8 8 8 7 7 8 8 7 5 5 5 6 5 3 2 4 4 4 3 3 3 3 4 5 6 6 6 4 4 4 4 4 4 5 5 6 6 7 7 8
10 9 10 10 13 12 9 8 10 11 9 7 6 6 5 4 5 5 4 4 4 3 3 3 4 3 3 4 5 5 5 8 6 4 4 4 4 5 5 5 5 6 7 6
9 10 11 10 14 13 11 11 12 11 8 8 7 6 7 7 6 5 4 3 2 1 1 3 4 3 3 4 5 4 4 5 6 5 5 5 5 5 5 5 5 6 6 8
14 16 13 11 11 11 10 9 8 7 6 6 8 8 8 8 6 5 4 2 1 2 4 4 4 4 4 5 5 4 4 4 4 4 4 5 5 5 5 5 6 7 6 7
10 10 8 6 6 6 5 4 4 5 6 8 9 8 6 5 6 5 4 2 1 3 4 3 5 2 3 4 5 4 4 4 4 4 4 5 5 5 5 5 6 6 6 6
2 1 2 3 4 3 4 6 8 8 6 7 9 8 7 5 5 5 3 1 3 4 3 3 4 3 4 5 6 3 4 5 5 5 4 5 5 5 5 6 6 5 5 5
4 4 6 7 7 8 7 7 8 8 6 6 7 7 7 5 4 4 2 2 3 3 3 4 3 4 4 4 5 4 4 5 5 5 5 5 5 5 5 5 5 6 5 5
4 5 6 7 9 8 6 6 7 8 7 6 6 6 6 4 3 2 3 4 3 4 3 3 3 5 6 6 4 4 5 5 5 5 5 5 5 6 6 6 6 6 5 5
4 5 7 7 8 7 7 6 6 6 6 5 5 4 4 3 2 2 1 2 2 4 4 3 6 8 8 5 4 4 5 5 5 5 5 5 6 6 6 6 6 6 6 6
5 6 6 6 6 7 7 5 5 4 4 4 3 2 2 1 0 2 2 3 4 5 3 5 9 9 5 1 2 3 4 5 5 5 5 5 5 5 6 6 6 6 6 7
5 5 5 5 5 5 5 5 5 4 4 2 2 1 1 1 2 2 2 3 5 5 4 5 8 7 3 2 3 4 4 5 5 5 5 6 6 6 6 6 6 7 6 7
4 4 4 5 4 3 3 3 3 2 2 1 1 1 1 1 2 2 3 3 4 5 4 3 4 4 3 3 4 5 5 5 6 6 6 6 6 6 6 7 8 7 7 7
4 4 3 3 3 3 2 2 2 1 1 0 0 1 2 2 2 3 3 3 3 3 3 3 3 3 4 4 4 5 5 5 6 6 6 6 6 6 7 8 7 7 7 7
Wind_Direction
201 156 165 192 197 186 194 203 215 229 227 218 208 216 212 208 207 208 214 209 203 200 200 200 202 207 210 217 213 202 198 203 205 181 138 100 61 19 352 351 345 335 331 328
193 109 162 245 222 195 208 214 224 241 250 213 208 200 211 213 209 218 222 216 207 200 198 200 203 207 210 216 212 192 194 196 171 146 128 103 53 2 346 345 340 335 332 327
202 112 66 251 213 188 195 193 186 220 237 191 200 211 217 215 212 219 219 209 201 198 199 201 203 202 208 213 196 182 187 177 161 150 139 111 14 348 343 337 335 331 324 321
145 139 224 240 157 182 196 210 202 217 229 203 208 210 215 206 207 215 208 201 199 197 201 206 205 204 205 195 183 182 180 173 163 155 150 133 347 333 330 327 327 319 313 306
164 212 258 287 208 161 175 235 211 216 231 212 147 113 266 221 206 205 201 197 198 197 197 200 204 200 186 188 183 182 185 179 167 160 160 186 302 312 313 314 309 302 294 298
163 194 227 241 179 156 113 262 229 203 216 172 137 192 255 213 201 209 209 202 202 199 194 203 210 183 181 194 191 200 191 170 155 155 169 223 267 288 288 297 294 298 299 296
193 219 246 219 154 134 169 236 201 181 181 164 184 206 217 189 198 208 210 211 205 196 200 212 198 174 194 200 209 195 151 143 151 158 186 230 258 271 287 292 295 293 293 290
171 213 241 161 154 185 203 165 161 171 177 183 208 226 226 214 217 217 217 219 209 205 219 215 185 180 202 212 189 144 145 152 164 178 220 225 252 273 275 280 289 287 288 290
194 215 203 162 186 199 166 171 181 184 193 193 206 225 229 229 229 227 222 223 216 211 222 216 191 189 207 197 148 148 152 170 186 212 232 233 243 263 269 262 269 282 285 290
223 256 202 211 239 212 193 199 198 194 192 188 207 225 231 233 234 233 232 230 225 214 220 224 205 199 195 154 149 149 168 186 199 218 236 235 240 246 246 249 257 266 273 280
212 235 215 242 230 226 217 221 225 219 210 208 214 230 232 235 236 233 235 235 222 216 225 227 193 180 158 148 147 158 176 193 208 216 228 246 249 241 249 237 236 250 256 263
199 197 186 212 218 212 212 223 222 222 234 227 214 230 236 239 240 238 239 233 224 223 225 211 172 166 154 152 156 166 188 202 208 216 224 237 256 275 274 274 276 277 282 289
190 184 194 216 217 202 205 219 220 217 226 236 229 222 231 241 243 237 235 225 219 217 203 170 160 161 160 161 167 182 198 202 204 219 228 238 249 265 288 300 293 293 294 304
204 179 211 228 230 218 211 221 222 225 229 230 233 224 220 230 236 225 224 212 170 144 140 145 156 171 164 166 178 195 205 215 217 220 228 234 242 251 260 278 296 297 299 307
217 207 215 229 235 230 217 211 216 229 230 229 220 215 207 207 211 191 133 109 109 118 130 147 181 204 173 176 190 201 208 217 218 222 226 232 240 249 253 257 267 283 299 305
224 216 220 233 242 243 226 210 215 230 226 219 208 197 182 158 136 120 112 115 128 159 180 199 227 227 188 191 204 211 218 228 222 218 224 230 236 245 251 254 261 270 279 290
224 233 223 225 237 241 232 221 219 225 218 205 191 157 135 125 121 125 117 93 86 114 227 237 248 248 222 213 215 222 219 228 230 226 226 228 231 238 245 248 255 263 268 278
223 235 233 222 227 231 232 221 209 204 199 170 140 138 144 150 155 148 134 108 55 312 276 257 255 251 242 231 223 223 220 221 219 225 231 233 235 236 239 247 253 262 273 285
238 242 248 239 234 221 210 189 162 138 127 131 136 137 130 123 120 122 121 123 244 283 289 292 297 300 256 246 230 215 221 228 231 231 231 238 242 239 238 243 250 254 265 276
320 21 72 65 55 89 117 113 112 107 106 115 117 117 116 114 116 120 125 209 242 243 274 299 303 287 262 262 265 234 224 230 237 238 234 235 240 243 241 245 248 254 257 262
48 72 87 90 77 70 84 105 113 111 104 108 119 125 125 124 128 134 145 257 271 261 271 277 268 264 259 253 251 237 231 234 238 239 238 238 242 246 247 248 251 255 258 264
63 88 96 101 102 86 67 77 96 105 104 100 104 114 122 131 144 171 213 231 263 293 291 275 266 260 259 253 239 233 233 235 238 238 238 237 239 247 251 251 253 257 258 260
70 88 95 98 104 101 85 77 87 101 109 115 122 128 131 138 158 178 263 248 256 284 280 267 276 278 273 250 232 231 235 239 242 242 241 240 241 244 251 256 257 258 262 265
67 74 83 93 103 101 93 84 82 85 94 99 108 127 138 132 220 239 246 284 293 296 291 282 291 301 314 282 245 242 243 246 249 249 248 248 245 246 249 254 259 260 260 264
71 77 84 93 90 88 100 107 98 89 88 80 72 95 167 189 216 258 274 282 291 300 289 296 306 313 318 279 264 259 256 254 254 254 251 252 250 249 250 252 255 260 261 261
61 65 61 60 72 89 97 100 97 93 88 74 31 7 344 289 268 271 274 278 284 287 284 280 283 286 275 269 266 266 266 268 267 262 256 256 255 256 257 257 255 256 259 260
71 71 75 73 61 60 69 79 96 105 110 134 299 302 299 296 291 288 289 287 288 286 283 281 278 273 271 271 272 273 271 268 266 264 262 260 259 259 260 260 261 261 261 263